Location: Peterborough
(44.3091°N, 78.3197°W)
Time: 11:41:37
(UTC-04:00)

Transit 2A - Pass Details

Date: 31 March 2023
Orbit: 591 x 964 km, 66.7° (Epoch: 27 May)

Event Time Altitude Azimuth Distance (km) Brightness Sun altitude
Rises 14:27:00 0° 321° (NW) 3,654 9.3 47.1°
Reaches altitude 10° 14:29:46 10° 313° (NW) 2,708 8.8 46.9°
Maximum altitude 14:35:30 36° 250° (WSW) 1,465 8.6 46.4°
Drops below altitude 10° 14:41:02 10° 186° (S) 2,610 9.6 46.0°
Sets 14:43:39 0° 178° (S) 3,505 10.0 45.7°
